Location: *
(45.1333°S, 169.6333°W)
Time: 16:50:51
(UTC+00:00)

USA 307 - Visible Passes

Search period start: 06 October 2022 00:00
Search period end: 16 October 2022 00:00
Orbit: 542 x 545 km, 54.0° (Epoch: 03 October)

Date Brightness Start Highest point End Pass type
(mag) Time Alt. Az. Time Alt. Az. Time Alt. Az.
06 Oct 3.0 06:49:08 10° WSW 06:53:17 68° NW 06:55:42 24° NE visible
06 Oct 5.6 08:30:41 10° WNW 08:31:14 11° WNW 08:31:14 11° WNW visible
07 Oct 3.4 06:41:40 10° WSW 06:45:44 53° NW 06:48:47 17° NNE visible
08 Oct 3.8 06:34:11 10° WSW 06:38:07 42° NW 06:41:55 11° NNE visible
09 Oct 4.3 06:26:43 10° WSW 06:30:28 33° NW 06:34:10 10° NNE visible
10 Oct 4.7 06:19:15 10° WSW 06:22:43 26° NW 06:26:10 10° N visible
11 Oct 5.2 06:11:51 10° W 06:14:57 20° NW 06:18:01 10° N visible
